SZN160 KMCO-GOBD

Flight info

Callsign SZN160
Flight time 7h 20m
Altitude 37000
Route MZULO3 LENDS M203 SNAGY 2960N 2957N 2950N 2945N 2842N 2740N 2434N ULTEM UR976 LUMPO R976 LIGOV
Aircraft A339/H-SADE1E2E3GHIJ3J5M1P2RWXY/LB2D1

Departure

Time 2026-04-25 13:13
Airport Orlando International Airport (KMCO)

Arrival

Time 2026-04-25 20:33
Airport Blaise Diagne International Airport (GOBD)
Time Latitude Longitude Altitude Speed Heading
2026-04-25 11:56 28.41091 -81.31515 91 ft 0 kts 20°
2026-04-25 12:36 28.41086 -81.31517 91 ft 2 kts 21°
2026-04-25 12:37 28.41072 -81.31524 91 ft 2 kts 24°
2026-04-25 12:37 28.41059 -81.31530 91 ft 2 kts 22°
2026-04-25 12:37 28.41045 -81.31537 90 ft 2 kts 22°
2026-04-25 12:37 28.41031 -81.31543 90 ft 2 kts 22°
2026-04-25 12:38 28.41022 -81.31548 90 ft 2 kts 22°
2026-04-25 12:38 28.41008 -81.31548 90 ft 2 kts 329°
2026-04-25 12:38 28.40999 -81.31537 90 ft 0 kts 287°
2026-04-25 12:38 28.40997 -81.31531 90 ft 0 kts 285°
2026-04-25 12:44 28.40998 -81.31541 90 ft 2 kts 276°
2026-04-25 12:45 28.41000 -81.31589 91 ft 7 kts 270°
2026-04-25 12:45 28.41000 -81.31646 92 ft 6 kts 270°
2026-04-25 12:45 28.40998 -81.31737 93 ft 0 kts 269°
2026-04-25 12:46 28.40998 -81.31741 93 ft 1 kts 269°
2026-04-25 12:46 28.40998 -81.31768 93 ft 4 kts 269°
2026-04-25 12:47 28.40997 -81.31812 93 ft 6 kts 269°
2026-04-25 12:47 28.41003 -81.31873 93 ft 8 kts 300°
2026-04-25 12:47 28.41049 -81.31908 94 ft 7 kts 348°
2026-04-25 12:47 28.41118 -81.31911 94 ft 13 kts 359°
2026-04-25 12:48 28.41222 -81.31912 95 ft 17 kts 360°
2026-04-25 12:48 28.41349 -81.31913 96 ft 17 kts 360°
2026-04-25 12:48 28.41471 -81.31912 96 ft 17 kts
2026-04-25 12:48 28.41587 -81.31885 96 ft 16 kts
2026-04-25 12:49 28.41703 -81.31883 96 ft 16 kts
2026-04-25 12:49 28.41818 -81.31874 96 ft 16 kts
2026-04-25 12:49 28.41920 -81.31875 96 ft 12 kts 359°
2026-04-25 12:49 28.41996 -81.31876 97 ft 9 kts 359°
2026-04-25 12:50 28.42041 -81.31876 97 ft 9 kts 359°
2026-04-25 12:50 28.42109 -81.31874 97 ft 6 kts
2026-04-25 12:50 28.42143 -81.31868 97 ft 2 kts 13°
2026-04-25 12:50 28.42147 -81.31866 97 ft 0 kts 13°
2026-04-25 12:52 28.42156 -81.31864 97 ft 2 kts 14°
2026-04-25 12:52 28.42185 -81.31856 97 ft 6 kts 15°
2026-04-25 12:52 28.42235 -81.31840 96 ft 8 kts 14°
2026-04-25 12:53 28.42297 -81.31831 96 ft 8 kts
2026-04-25 12:53 28.42340 -81.31821 96 ft 3 kts 39°
2026-04-25 12:53 28.42348 -81.31778 96 ft 7 kts 87°
2026-04-25 12:53 28.42349 -81.31711 96 ft 9 kts 90°
2026-04-25 12:54 28.42349 -81.31634 96 ft 10 kts 91°
2026-04-25 12:54 28.42347 -81.31545 96 ft 11 kts 91°
2026-04-25 12:54 28.42347 -81.31448 95 ft 13 kts 90°
2026-04-25 12:54 28.42348 -81.31335 93 ft 15 kts 89°
2026-04-25 12:55 28.42348 -81.31259 93 ft 12 kts 92°
2026-04-25 12:55 28.42340 -81.31176 93 ft 10 kts 98°
2026-04-25 12:55 28.42323 -81.31060 93 ft 11 kts 99°
2026-04-25 12:55 28.42317 -81.30969 93 ft 12 kts 91°
2026-04-25 12:56 28.42321 -81.30876 93 ft 10 kts 85°
2026-04-25 12:56 28.42327 -81.30800 93 ft 7 kts 85°
2026-04-25 12:56 28.42331 -81.30742 94 ft 7 kts 85°
2026-04-25 12:56 28.42335 -81.30685 95 ft 7 kts 85°
2026-04-25 12:57 28.42339 -81.30628 96 ft 7 kts 85°
2026-04-25 12:57 28.42341 -81.30589 96 ft 0 kts 85°
2026-04-25 12:59 28.42342 -81.30584 96 ft 2 kts 85°
2026-04-25 12:59 28.42344 -81.30551 96 ft 5 kts 85°
2026-04-25 12:59 28.42348 -81.30493 96 ft 8 kts 85°
2026-04-25 12:59 28.42354 -81.30413 96 ft 11 kts 85°
2026-04-25 13:00 28.42358 -81.30350 96 ft 12 kts 88°
2026-04-25 13:00 28.42359 -81.30283 97 ft 12 kts 90°
2026-04-25 13:00 28.42360 -81.30118 99 ft 12 kts 90°
2026-04-25 13:00 28.42360 -81.30029 99 ft 8 kts 90°
2026-04-25 13:01 28.42361 -81.29986 99 ft 5 kts 89°
2026-04-25 13:01 28.42361 -81.29939 99 ft 6 kts 89°
2026-04-25 13:01 28.42361 -81.29932 99 ft 0 kts 89°
2026-04-25 13:02 28.42361 -81.29931 99 ft 0 kts 89°
2026-04-25 13:02 28.42362 -81.29921 99 ft 2 kts 89°
2026-04-25 13:02 28.42362 -81.29899 99 ft 2 kts 89°
2026-04-25 13:02 28.42362 -81.29869 99 ft 5 kts 89°
2026-04-25 13:03 28.42363 -81.29807 98 ft 10 kts 89°
2026-04-25 13:03 28.42364 -81.29755 97 ft 5 kts 84°
2026-04-25 13:03 28.42366 -81.29742 97 ft 0 kts 75°
2026-04-25 13:04 28.42370 -81.29733 96 ft 0 kts 65°
2026-04-25 13:04 28.42372 -81.29729 96 ft 2 kts 59°
2026-04-25 13:04 28.42390 -81.29712 96 ft 4 kts 25°
2026-04-25 13:04 28.42429 -81.29703 96 ft 9 kts
2026-04-25 13:05 28.42476 -81.29700 96 ft 10 kts
2026-04-25 13:05 28.42579 -81.29700 96 ft 11 kts 357°
2026-04-25 13:05 28.42663 -81.29703 96 ft 12 kts 358°
2026-04-25 13:05 28.42751 -81.29704 97 ft 12 kts 359°
2026-04-25 13:06 28.42835 -81.29705 99 ft 11 kts 360°
2026-04-25 13:06 28.42917 -81.29705 99 ft 12 kts
2026-04-25 13:06 28.43003 -81.29705 99 ft 12 kts 360°
2026-04-25 13:06 28.43084 -81.29706 99 ft 8 kts 359°
2026-04-25 13:07 28.43129 -81.29707 99 ft 5 kts 359°
2026-04-25 13:07 28.43175 -81.29707 99 ft 7 kts 359°
2026-04-25 13:07 28.43232 -81.29708 99 ft 8 kts 359°
2026-04-25 13:07 28.43250 -81.29709 99 ft 0 kts 359°
2026-04-25 13:08 28.43257 -81.29709 99 ft 4 kts 359°
2026-04-25 13:08 28.43312 -81.29710 99 ft 10 kts 359°
2026-04-25 13:08 28.43398 -81.29710 99 ft 14 kts
2026-04-25 13:08 28.43483 -81.29711 99 ft 9 kts 359°
2026-04-25 13:09 28.43524 -81.29704 99 ft 0 kts 24°
2026-04-25 13:09 28.43533 -81.29698 99 ft 4 kts 38°
2026-04-25 13:10 28.43551 -81.29654 99 ft 7 kts 82°
2026-04-25 13:10 28.43552 -81.29616 99 ft 6 kts 99°
2026-04-25 13:10 28.43532 -81.29594 99 ft 0 kts 169°
2026-04-25 13:10 28.43527 -81.29594 99 ft 0 kts 171°
2026-04-25 13:12 28.43488 -81.29589 99 ft 22 kts 176°
2026-04-25 13:12 28.43102 -81.29584 99 ft 87 kts 180°
2026-04-25 13:12 28.42291 -81.29576 96 ft 142 kts 180°
2026-04-25 13:12 28.41566 -81.29567 147 ft 167 kts 180°
2026-04-25 13:13 28.39993 -81.29525 848 ft 169 kts 179°
2026-04-25 13:13 28.38802 -81.29478 1362 ft 176 kts 178°
2026-04-25 13:13 28.37580 -81.29230 1796 ft 184 kts 153°
2026-04-25 13:13 28.36487 -81.28372 2107 ft 196 kts 139°
2026-04-25 13:14 28.35547 -81.27169 2403 ft 211 kts 117°
2026-04-25 13:14 28.35347 -81.25494 2668 ft 227 kts 76°
2026-04-25 13:14 28.35877 -81.23752 2973 ft 244 kts 68°
2026-04-25 13:14 28.36546 -81.21925 3294 ft 260 kts 68°
2026-04-25 13:15 28.37216 -81.19967 3839 ft 267 kts 70°
2026-04-25 13:15 28.37842 -81.17989 4511 ft 268 kts 71°
2026-04-25 13:15 28.38433 -81.16009 5143 ft 270 kts 71°
2026-04-25 13:15 28.39023 -81.13961 5753 ft 273 kts 71°
2026-04-25 13:16 28.39604 -81.11906 6353 ft 276 kts 72°
2026-04-25 13:16 28.40188 -81.09811 6944 ft 280 kts 71°
2026-04-25 13:16 28.40769 -81.07713 7509 ft 283 kts 71°
2026-04-25 13:16 28.41362 -81.05571 8093 ft 286 kts 71°
2026-04-25 13:17 28.41961 -81.03397 8674 ft 289 kts 71°
2026-04-25 13:17 28.42563 -81.01213 9249 ft 292 kts 71°
2026-04-25 13:17 28.43169 -80.99007 9803 ft 295 kts 70°
2026-04-25 13:17 28.43783 -80.96773 10310 ft 300 kts 70°
2026-04-25 13:18 28.44419 -80.94463 10580 ft 315 kts 70°
2026-04-25 13:18 28.45089 -80.92033 10830 ft 330 kts 70°
2026-04-25 13:18 28.45785 -80.89501 11103 ft 343 kts 70°
2026-04-25 13:18 28.46506 -80.86866 11562 ft 350 kts 70°
2026-04-25 13:19 28.47197 -80.84231 12141 ft 354 kts 72°
2026-04-25 13:19 28.47751 -80.81497 12740 ft 357 kts 77°
2026-04-25 13:19 28.48138 -80.78696 13297 ft 361 kts 80°
2026-04-25 13:19 28.48248 -80.77740 13483 ft 363 kts 80°
2026-04-25 13:20 28.48769 -80.73004 14399 ft 368 kts 80°
2026-04-25 13:20 28.49084 -80.70114 14941 ft 372 kts 80°
2026-04-25 13:20 28.49403 -80.67200 15469 ft 376 kts 80°
2026-04-25 13:20 28.49733 -80.64211 16020 ft 379 kts 80°
2026-04-25 13:21 28.50058 -80.61262 16543 ft 382 kts 80°
2026-04-25 13:21 28.50388 -80.58265 17052 ft 386 kts 80°
2026-04-25 13:21 28.50722 -80.55228 17573 ft 390 kts 80°
2026-04-25 13:21 28.51057 -80.52174 18083 ft 393 kts 80°
2026-04-25 13:22 28.51398 -80.49060 18600 ft 397 kts 80°
2026-04-25 13:22 28.51738 -80.45957 19104 ft 400 kts 80°
2026-04-25 13:22 28.52082 -80.42793 19615 ft 402 kts 80°
2026-04-25 13:23 28.52773 -80.36440 20572 ft 409 kts 80°
2026-04-25 13:23 28.53124 -80.33215 21055 ft 411 kts 79°
2026-04-25 13:23 28.53647 -80.30029 21511 ft 412 kts 73°
2026-04-25 13:23 28.54468 -80.26894 21979 ft 412 kts 67°
2026-04-25 13:24 28.55535 -80.23878 22437 ft 413 kts 64°
2026-04-25 13:24 28.56677 -80.20885 22894 ft 415 kts 63°
2026-04-25 13:24 28.57826 -80.17904 23320 ft 417 kts 64°
2026-04-25 13:24 28.58992 -80.14867 23740 ft 419 kts 64°
2026-04-25 13:25 28.60156 -80.11819 24158 ft 421 kts 64°
2026-04-25 13:25 28.61329 -80.08733 24584 ft 423 kts 64°
2026-04-25 13:25 28.62495 -80.05655 24990 ft 425 kts 64°
2026-04-25 13:25 28.63673 -80.02541 25380 ft 427 kts 64°
2026-04-25 13:26 28.64833 -79.99464 25759 ft 428 kts 64°
2026-04-25 13:26 28.66015 -79.96333 26135 ft 430 kts 64°
2026-04-25 13:26 28.67191 -79.93211 26493 ft 432 kts 64°
2026-04-25 13:26 28.68378 -79.90060 26834 ft 434 kts 64°
2026-04-25 13:27 28.69565 -79.86905 27168 ft 436 kts 64°
2026-04-25 13:27 28.70771 -79.83695 27503 ft 438 kts 64°
2026-04-25 13:27 28.71964 -79.80513 27835 ft 439 kts 64°
2026-04-25 13:27 28.73161 -79.77322 28154 ft 441 kts 64°
2026-04-25 13:28 28.74364 -79.74109 28486 ft 442 kts 64°
2026-04-25 13:28 28.74759 -79.73055 28592 ft 442 kts 64°
2026-04-25 13:28 28.76772 -79.67665 29035 ft 447 kts 64°
2026-04-25 13:28 28.78005 -79.64368 29286 ft 449 kts 64°
2026-04-25 13:29 28.79241 -79.61125 29561 ft 451 kts 63°
2026-04-25 13:29 28.80629 -79.57915 29825 ft 452 kts 59°
2026-04-25 13:29 28.82173 -79.54784 30080 ft 453 kts 56°
2026-04-25 13:30 28.85683 -79.48808 30581 ft 455 kts 52°
2026-04-25 13:30 28.87513 -79.45898 30815 ft 457 kts 52°
2026-04-25 13:30 28.89389 -79.42926 31059 ft 458 kts 52°
2026-04-25 13:31 28.93100 -79.37031 31487 ft 462 kts 52°
2026-04-25 13:31 28.94981 -79.34034 31699 ft 464 kts 52°
2026-04-25 13:31 28.96864 -79.31028 31912 ft 466 kts 52°
2026-04-25 13:31 28.98760 -79.28000 32183 ft 466 kts 52°
2026-04-25 13:32 29.00622 -79.25022 32515 ft 465 kts 52°
2026-04-25 13:32 29.02513 -79.21995 32851 ft 463 kts 52°
2026-04-25 13:32 29.04385 -79.18997 33157 ft 462 kts 52°
2026-04-25 13:32 29.06236 -79.16032 33428 ft 462 kts 52°
2026-04-25 13:33 29.08088 -79.13064 33681 ft 462 kts 52°
2026-04-25 13:33 29.09965 -79.10049 33972 ft 461 kts 52°
2026-04-25 13:33 29.11813 -79.07079 34285 ft 460 kts 52°
2026-04-25 13:33 29.13048 -79.05095 34503 ft 460 kts 52°
2026-04-25 13:34 29.15500 -79.01150 34927 ft 458 kts 52°
2026-04-25 13:34 29.17357 -78.98158 35224 ft 457 kts 52°
2026-04-25 13:34 29.19183 -78.95216 35500 ft 456 kts 52°
2026-04-25 13:34 29.21011 -78.92269 35786 ft 455 kts 52°
2026-04-25 13:35 29.22838 -78.89322 36052 ft 454 kts 52°
2026-04-25 13:35 29.24676 -78.86352 36300 ft 453 kts 52°
2026-04-25 13:35 29.26480 -78.83437 36511 ft 453 kts 52°
2026-04-25 13:35 29.28310 -78.80473 36701 ft 453 kts 52°
2026-04-25 13:36 29.30130 -78.77528 36869 ft 454 kts 51°
2026-04-25 13:36 29.31935 -78.74603 37020 ft 455 kts 52°
2026-04-25 13:36 29.33696 -78.71562 37168 ft 457 kts 55°
2026-04-25 13:36 29.35309 -78.68418 37307 ft 459 kts 58°
2026-04-25 13:37 29.36742 -78.65167 37447 ft 461 kts 62°
2026-04-25 13:37 29.38003 -78.61763 37586 ft 464 kts 66°
2026-04-25 13:37 29.39069 -78.58285 37719 ft 466 kts 69°
2026-04-25 13:37 29.39946 -78.54675 37833 ft 469 kts 73°
2026-04-25 13:38 29.40605 -78.51028 37950 ft 471 kts 77°
2026-04-25 13:38 29.41583 -78.43580 37969 ft 475 kts 78°
2026-04-25 13:39 29.42529 -78.36042 37974 ft 481 kts 78°
2026-04-25 13:39 29.43491 -78.28441 37972 ft 482 kts 79°
2026-04-25 13:40 29.44454 -78.20840 37970 ft 483 kts 79°
2026-04-25 13:40 29.45416 -78.13233 37974 ft 483 kts 79°
2026-04-25 13:41 29.46376 -78.05621 37980 ft 483 kts 79°
2026-04-25 13:41 29.47331 -77.97983 37981 ft 482 kts 79°
2026-04-25 13:42 29.48278 -77.90382 37980 ft 486 kts 79°
2026-04-25 13:42 29.49235 -77.82658 37985 ft 489 kts 79°
2026-04-25 13:43 29.50179 -77.74984 37979 ft 489 kts 79°
2026-04-25 13:43 29.51126 -77.67284 37989 ft 489 kts 79°
2026-04-25 13:44 29.52075 -77.59551 37984 ft 490 kts 79°
2026-04-25 13:44 29.53010 -77.51865 37982 ft 490 kts 80°
2026-04-25 13:45 29.53941 -77.44149 37988 ft 489 kts 80°
2026-04-25 13:45 29.54868 -77.36429 37984 ft 489 kts 80°
2026-04-25 13:46 29.55795 -77.28671 37992 ft 489 kts 81°
2026-04-25 13:46 29.56711 -77.20963 37986 ft 489 kts 81°
2026-04-25 13:47 29.57622 -77.13251 37986 ft 489 kts 81°
2026-04-25 13:47 29.58531 -77.05510 37983 ft 489 kts 81°
2026-04-25 13:48 29.59433 -76.97781 37993 ft 488 kts 81°
2026-04-25 13:48 29.60330 -76.90048 37986 ft 488 kts 81°
2026-04-25 13:49 29.60878 -76.82323 37989 ft 489 kts 86°
2026-04-25 13:49 29.61094 -76.74541 37986 ft 489 kts 87°
2026-04-25 13:50 29.61257 -76.68039 37987 ft 489 kts 87°
2026-04-25 13:50 29.61485 -76.58925 37992 ft 489 kts 87°
2026-04-25 13:51 29.61677 -76.51170 37992 ft 489 kts 87°
2026-04-25 13:51 29.61868 -76.43346 37997 ft 489 kts 87°
2026-04-25 13:52 29.62054 -76.35580 37990 ft 488 kts 87°
2026-04-25 13:52 29.62233 -76.27814 37983 ft 488 kts 88°
2026-04-25 13:53 29.62411 -76.19998 37976 ft 487 kts 88°
2026-04-25 13:53 29.62581 -76.12233 37995 ft 488 kts 88°
2026-04-25 13:54 29.62748 -76.04488 37982 ft 487 kts 88°
2026-04-25 13:54 29.62911 -75.96732 37993 ft 487 kts 88°
2026-04-25 13:55 29.63068 -75.88974 37979 ft 487 kts 88°
2026-04-25 13:55 29.63221 -75.81194 37983 ft 486 kts 88°
2026-04-25 13:56 29.63369 -75.73463 37987 ft 486 kts 88°
2026-04-25 13:56 29.63513 -75.65710 37973 ft 485 kts 88°
2026-04-25 13:57 29.63653 -75.57972 37987 ft 486 kts 88°
2026-04-25 13:57 29.63788 -75.50231 37995 ft 486 kts 88°
2026-04-25 13:58 29.63919 -75.42440 37992 ft 486 kts 88°
2026-04-25 13:58 29.64044 -75.34700 38004 ft 486 kts 89°
2026-04-25 13:59 29.64164 -75.26990 37999 ft 485 kts 89°
2026-04-25 13:59 29.64282 -75.19222 38000 ft 484 kts 89°
2026-04-25 14:00 29.64357 -75.14130 37995 ft 484 kts 89°
2026-04-25 14:00 29.64502 -75.03809 38008 ft 484 kts 89°
2026-04-25 14:01 29.64604 -74.96081 37998 ft 485 kts 89°
2026-04-25 14:01 29.64702 -74.88376 38001 ft 485 kts 89°
2026-04-25 14:02 29.64796 -74.80653 38005 ft 485 kts 89°
2026-04-25 14:02 29.64886 -74.72890 38003 ft 484 kts 89°
2026-04-25 14:03 29.64972 -74.65174 38001 ft 484 kts 89°
2026-04-25 14:03 29.65053 -74.57473 37996 ft 484 kts 89°
2026-04-25 14:04 29.65130 -74.49736 37999 ft 484 kts 89°
2026-04-25 14:04 29.65202 -74.41982 38001 ft 485 kts 89°
2026-04-25 14:05 29.65269 -74.34282 38000 ft 484 kts 89°
2026-04-25 14:05 29.65331 -74.26559 38000 ft 484 kts 89°
2026-04-25 14:06 29.65388 -74.18837 37998 ft 484 kts 89°
2026-04-25 14:06 29.65443 -74.11075 38004 ft 484 kts 89°
2026-04-25 14:07 29.65492 -74.03339 37998 ft 484 kts 89°
2026-04-25 14:07 29.65537 -73.95626 38006 ft 484 kts 89°
2026-04-25 14:08 29.65577 -73.87882 38006 ft 484 kts 89°
2026-04-25 14:08 29.65613 -73.80171 38002 ft 485 kts 89°
2026-04-25 14:09 29.65645 -73.72462 38002 ft 485 kts 89°
2026-04-25 14:09 29.65671 -73.64722 38004 ft 485 kts 89°
2026-04-25 14:10 29.65694 -73.56984 38004 ft 486 kts 89°
2026-04-25 14:10 29.65712 -73.49218 38003 ft 485 kts 89°
2026-04-25 14:11 29.65725 -73.41436 38003 ft 485 kts 89°
2026-04-25 14:11 29.65734 -73.33697 38003 ft 486 kts 90°
2026-04-25 14:12 29.65739 -73.25948 38003 ft 486 kts 90°
2026-04-25 14:12 29.65739 -73.18170 38004 ft 486 kts 90°
2026-04-25 14:13 29.65734 -73.10407 38002 ft 486 kts 90°
2026-04-25 14:13 29.65725 -73.02665 38004 ft 486 kts 90°
2026-04-25 14:14 29.65711 -72.94917 38003 ft 486 kts 90°
2026-04-25 14:14 29.65693 -72.87163 38001 ft 486 kts 90°
2026-04-25 14:15 29.65671 -72.79420 38001 ft 487 kts 90°
2026-04-25 14:15 29.65644 -72.71658 38002 ft 487 kts 90°
2026-04-25 14:16 29.65613 -72.63893 38000 ft 488 kts 90°
2026-04-25 14:16 29.65576 -72.56097 38003 ft 488 kts 90°
2026-04-25 14:17 29.65535 -72.48315 38001 ft 488 kts 90°
2026-04-25 14:17 29.65489 -72.40560 38002 ft 488 kts 90°
2026-04-25 14:18 29.65439 -72.32754 38000 ft 489 kts 90°
2026-04-25 14:18 29.65385 -72.24991 38001 ft 488 kts 90°
2026-04-25 14:19 29.65326 -72.17176 37998 ft 489 kts 90°
2026-04-25 14:19 29.65262 -72.09381 38003 ft 489 kts 90°
2026-04-25 14:20 29.65194 -72.01586 38001 ft 489 kts 90°
2026-04-25 14:20 29.65121 -71.93759 38002 ft 489 kts 90°
2026-04-25 14:21 29.65045 -71.86002 38007 ft 489 kts 90°
2026-04-25 14:21 29.64962 -71.78200 38006 ft 489 kts 90°
2026-04-25 14:22 29.64875 -71.70367 38008 ft 489 kts 90°
2026-04-25 14:22 29.64784 -71.62596 38009 ft 489 kts 90°
2026-04-25 14:23 29.64689 -71.54775 38019 ft 490 kts 90°
2026-04-25 14:23 29.64588 -71.46965 38022 ft 490 kts 90°
2026-04-25 14:24 29.64484 -71.39156 38020 ft 490 kts 90°
2026-04-25 14:24 29.64374 -71.31329 38020 ft 490 kts 91°
2026-04-25 14:25 29.64298 -71.26136 38022 ft 491 kts 91°
2026-04-25 14:25 29.64139 -71.15678 38025 ft 491 kts 90°
2026-04-25 14:26 29.64016 -71.07869 38023 ft 491 kts 90°
2026-04-25 14:26 29.63888 -71.00043 38021 ft 491 kts 90°
2026-04-25 14:27 29.63756 -70.92228 38014 ft 492 kts 90°
2026-04-25 14:27 29.63619 -70.84390 38023 ft 492 kts 90°
2026-04-25 14:28 29.63476 -70.76524 38017 ft 492 kts 90°
2026-04-25 14:28 29.63330 -70.68734 38019 ft 493 kts 90°
2026-04-25 14:29 29.63177 -70.60864 38019 ft 493 kts 90°
2026-04-25 14:29 29.63021 -70.52982 38018 ft 493 kts 90°
2026-04-25 14:30 29.62862 -70.45181 38021 ft 493 kts 90°
2026-04-25 14:30 29.62610 -70.33362 38018 ft 493 kts 91°
2026-04-25 14:31 29.62438 -70.25524 38017 ft 493 kts 91°
2026-04-25 14:31 29.62262 -70.17687 38021 ft 493 kts 91°
2026-04-25 14:32 29.62079 -70.09791 38022 ft 494 kts 91°
2026-04-25 14:32 29.61892 -70.01937 38019 ft 495 kts 91°
2026-04-25 14:33 29.61699 -69.94019 38021 ft 495 kts 91°
2026-04-25 14:33 29.61504 -69.86179 38016 ft 495 kts 91°
2026-04-25 14:34 29.61301 -69.78256 38021 ft 495 kts 91°
2026-04-25 14:34 29.61097 -69.70396 38020 ft 495 kts 91°
2026-04-25 14:35 29.60886 -69.62502 38021 ft 494 kts 91°
2026-04-25 14:35 29.60673 -69.54639 38023 ft 496 kts 91°
2026-04-25 14:36 29.60451 -69.46707 38017 ft 497 kts 91°
2026-04-25 14:36 29.60226 -69.38821 38020 ft 498 kts 91°
2026-04-25 14:37 29.59995 -69.30871 38021 ft 498 kts 92°
2026-04-25 14:37 29.59759 -69.22939 38021 ft 498 kts 92°
2026-04-25 14:38 29.59521 -69.15045 38022 ft 498 kts 92°
2026-04-25 14:38 29.59277 -69.07114 38020 ft 497 kts 92°
2026-04-25 14:39 29.59027 -68.99180 38022 ft 498 kts 92°
2026-04-25 14:39 29.58773 -68.91246 38023 ft 498 kts 92°
2026-04-25 14:40 29.58514 -68.83337 38023 ft 499 kts 92°
2026-04-25 14:40 29.58249 -68.75388 38023 ft 500 kts 92°
2026-04-25 14:41 29.57981 -68.67417 38022 ft 500 kts 92°
2026-04-25 14:41 29.57706 -68.59457 38023 ft 500 kts 92°
2026-04-25 14:42 29.57521 -68.54140 38022 ft 501 kts 92°
2026-04-25 14:42 29.57144 -68.43527 38022 ft 501 kts 92°
2026-04-25 14:43 29.56854 -68.35552 38023 ft 501 kts 92°
2026-04-25 14:43 29.56561 -68.27590 38022 ft 501 kts 93°
2026-04-25 14:44 29.56263 -68.19630 38023 ft 501 kts 93°
2026-04-25 14:44 29.55958 -68.11620 38023 ft 502 kts 93°
2026-04-25 14:45 29.55649 -68.03651 38023 ft 502 kts 94°
2026-04-25 14:45 29.55335 -67.95644 38022 ft 502 kts 94°
2026-04-25 14:46 29.55018 -67.87682 38023 ft 502 kts 94°
2026-04-25 14:46 29.54693 -67.79667 38022 ft 503 kts 94°
2026-04-25 14:47 29.54477 -67.74367 38021 ft 503 kts 94°
2026-04-25 14:47 29.54033 -67.63694 38021 ft 502 kts 94°
2026-04-25 14:48 29.53696 -67.55711 38020 ft 503 kts 94°
2026-04-25 14:48 29.53354 -67.47729 38022 ft 504 kts 94°
2026-04-25 14:49 29.53003 -67.39650 38022 ft 506 kts 94°
2026-04-25 14:49 29.52651 -67.31658 38020 ft 505 kts 94°
2026-04-25 14:50 29.52290 -67.23566 38021 ft 507 kts 95°
2026-04-25 14:50 29.51924 -67.15493 38020 ft 506 kts 95°
2026-04-25 14:51 29.51556 -67.07443 38023 ft 507 kts 95°
2026-04-25 14:51 29.51183 -66.99416 38021 ft 506 kts 95°
2026-04-25 14:52 29.50804 -66.91379 38023 ft 507 kts 95°
2026-04-25 14:52 29.50486 -66.84683 38022 ft 508 kts 95°
2026-04-25 14:53 29.50032 -66.75242 38022 ft 509 kts 95°
2026-04-25 14:53 29.49634 -66.67131 38022 ft 511 kts 95°
2026-04-25 14:54 29.49233 -66.58984 38025 ft 513 kts 96°
2026-04-25 14:54 29.48822 -66.50817 38024 ft 514 kts 96°
2026-04-25 14:55 29.48408 -66.42648 38027 ft 515 kts 96°
2026-04-25 14:55 29.47988 -66.34474 38025 ft 517 kts 97°
2026-04-25 14:56 29.47561 -66.26234 38025 ft 518 kts 97°
2026-04-25 14:56 29.47127 -66.17998 38023 ft 518 kts 97°
2026-04-25 14:57 29.46686 -66.09756 38024 ft 519 kts 98°
2026-04-25 14:57 29.46247 -66.01520 38025 ft 521 kts 98°
2026-04-25 14:58 29.45798 -65.93274 38023 ft 522 kts 98°
2026-04-25 14:58 29.45336 -65.84933 38028 ft 522 kts 98°
2026-04-25 14:59 29.44874 -65.76633 38023 ft 524 kts 98°
2026-04-25 14:59 29.44406 -65.68369 38023 ft 526 kts 99°
2026-04-25 15:00 29.43932 -65.60019 38021 ft 527 kts 99°
2026-04-25 15:00 29.43447 -65.51646 38026 ft 528 kts 99°
2026-04-25 15:01 29.42967 -65.43304 38019 ft 528 kts 99°
2026-04-25 15:01 29.42470 -65.34920 38025 ft 529 kts 101°
2026-04-25 15:02 29.41967 -65.26484 38020 ft 532 kts 101°
2026-04-25 15:02 29.41458 -65.18044 38029 ft 530 kts 101°
2026-04-25 15:03 29.40947 -65.09648 38041 ft 532 kts 101°
2026-04-25 15:03 29.40419 -65.01129 38036 ft 535 kts 101°
2026-04-25 15:04 29.39891 -64.92654 38034 ft 537 kts 102°
2026-04-25 15:04 29.39362 -64.84148 38032 ft 536 kts 102°
2026-04-25 15:05 29.38821 -64.75602 38032 ft 536 kts 102°
2026-04-25 15:06 29.37998 -64.62863 38032 ft 539 kts 102°
2026-04-25 15:06 29.37443 -64.54268 38030 ft 540 kts 102°
2026-04-25 15:07 29.36885 -64.45718 38017 ft 539 kts 102°
2026-04-25 15:07 29.36324 -64.37216 38018 ft 535 kts 102°
2026-04-25 15:08 29.35759 -64.28799 38010 ft 535 kts 103°
2026-04-25 15:08 29.35181 -64.20254 38017 ft 535 kts 103°
2026-04-25 15:09 29.34605 -64.11797 38012 ft 536 kts 103°
2026-04-25 15:09 29.33736 -63.99130 38018 ft 532 kts 103°
2026-04-25 15:10 29.33141 -63.90633 38024 ft 535 kts 103°
2026-04-25 15:11 29.32242 -63.77920 38022 ft 534 kts 103°
2026-04-25 15:11 29.31641 -63.69484 38019 ft 534 kts 103°
2026-04-25 15:12 29.30723 -63.56789 38027 ft 535 kts 103°
2026-04-25 15:12 29.30311 -63.51168 38019 ft 537 kts 103°
2026-04-25 15:13 29.29165 -63.35548 38020 ft 535 kts 102°
2026-04-25 15:14 29.28534 -63.27094 38021 ft 535 kts 103°
2026-04-25 15:14 29.27897 -63.18633 38021 ft 534 kts 103°
2026-04-25 15:15 29.27250 -63.10179 38020 ft 537 kts 103°
2026-04-25 15:15 29.26600 -63.01642 38024 ft 536 kts 103°
2026-04-25 15:16 29.25948 -62.93160 38022 ft 537 kts 103°
2026-04-25 15:16 29.24954 -62.80380 38022 ft 538 kts 103°
2026-04-25 15:17 29.23947 -62.67617 38021 ft 540 kts 103°
2026-04-25 15:18 29.23260 -62.59069 38019 ft 541 kts 103°
2026-04-25 15:18 29.22232 -62.46278 38019 ft 542 kts 103°
2026-04-25 15:19 29.21772 -62.40557 38017 ft 542 kts 102°
2026-04-25 15:19 29.20834 -62.29142 38016 ft 544 kts 103°
2026-04-25 15:20 29.20132 -62.20543 38019 ft 542 kts 103°
2026-04-25 15:20 29.19421 -62.11984 38019 ft 541 kts 103°
2026-04-25 15:21 29.18695 -62.03400 38024 ft 543 kts 103°
2026-04-25 15:21 29.17962 -61.94812 38019 ft 546 kts 103°
2026-04-25 15:22 29.17235 -61.86179 38019 ft 543 kts 103°
2026-04-25 15:22 29.16498 -61.77626 38020 ft 545 kts 102°
2026-04-25 15:23 29.15752 -61.68980 38019 ft 547 kts 103°
2026-04-25 15:23 29.15000 -61.60360 38016 ft 547 kts 103°
2026-04-25 15:24 29.14245 -61.51714 38017 ft 545 kts 103°
2026-04-25 15:24 29.13737 -61.45927 38020 ft 546 kts 103°
2026-04-25 15:25 29.12707 -61.34433 38020 ft 547 kts 102°
2026-04-25 15:25 29.11938 -61.25802 38019 ft 547 kts 103°
2026-04-25 15:26 29.11164 -61.17210 38021 ft 547 kts 103°
2026-04-25 15:26 29.10368 -61.08536 38019 ft 547 kts 102°
2026-04-25 15:27 29.09569 -60.99853 38021 ft 550 kts 102°
2026-04-25 15:28 29.08359 -60.86787 38022 ft 552 kts 102°
2026-04-25 15:28 29.07555 -60.78120 38021 ft 551 kts 103°
2026-04-25 15:29 29.06732 -60.69425 38025 ft 552 kts 102°
2026-04-25 15:29 29.05912 -60.60747 38024 ft 553 kts 102°
2026-04-25 15:30 29.05084 -60.52056 38023 ft 554 kts 103°
2026-04-25 15:30 29.04249 -60.43353 38025 ft 553 kts 102°
2026-04-25 15:31 29.03403 -60.34626 38022 ft 556 kts 102°
2026-04-25 15:31 29.02556 -60.25866 38023 ft 553 kts 103°
2026-04-25 15:32 29.01692 -60.17118 38024 ft 556 kts 103°
2026-04-25 15:32 29.00835 -60.08408 38024 ft 555 kts 102°
2026-04-25 15:33 29.00002 -59.95212 38021 ft 560 kts 95°
2026-04-25 15:33 29.00091 -59.86356 38022 ft 562 kts 94°
2026-04-25 15:34 29.00213 -59.77423 38025 ft 566 kts 93°
2026-04-25 15:34 29.00283 -59.71439 38021 ft 567 kts 93°
2026-04-25 15:35 29.00429 -59.54954 38017 ft 569 kts 93°
2026-04-25 15:36 29.00531 -59.41396 38018 ft 569 kts 94°
2026-04-25 15:36 29.00591 -59.32403 38013 ft 568 kts 93°
2026-04-25 15:37 29.00637 -59.23452 38017 ft 568 kts 93°
2026-04-25 15:37 29.00688 -59.14444 38017 ft 567 kts 94°
2026-04-25 15:38 29.00727 -59.05476 38020 ft 568 kts 93°
2026-04-25 15:38 29.00759 -58.96491 38014 ft 566 kts 94°
2026-04-25 15:39 29.00778 -58.87507 38020 ft 569 kts 93°
2026-04-25 15:39 29.00802 -58.78492 38022 ft 568 kts 93°
2026-04-25 15:40 29.00820 -58.72506 38016 ft 568 kts 92°
2026-04-25 15:40 29.00831 -58.60480 38017 ft 571 kts 92°
2026-04-25 15:41 29.00841 -58.51434 38021 ft 569 kts 92°
2026-04-25 15:41 29.00837 -58.42378 38014 ft 570 kts 92°
2026-04-25 15:42 29.00828 -58.33358 38013 ft 570 kts 93°
2026-04-25 15:42 29.00817 -58.24322 38020 ft 570 kts 93°
2026-04-25 15:43 29.00795 -58.15334 38016 ft 570 kts 94°
2026-04-25 15:43 29.00766 -58.06297 38015 ft 572 kts 92°
2026-04-25 15:44 29.00742 -57.97195 38017 ft 571 kts 94°
2026-04-25 15:44 29.00700 -57.88188 38017 ft 571 kts 93°
2026-04-25 15:45 29.00649 -57.79169 38017 ft 571 kts 92°
2026-04-25 15:45 29.00620 -57.73099 38017 ft 571 kts 93°
2026-04-25 15:46 29.00545 -57.61065 38011 ft 571 kts 92°
2026-04-25 15:46 29.00481 -57.52005 38016 ft 572 kts 92°
2026-04-25 15:47 29.00415 -57.42975 38007 ft 571 kts 92°
2026-04-25 15:47 29.00342 -57.33943 37998 ft 572 kts 92°
2026-04-25 15:48 29.00258 -57.24848 38000 ft 572 kts 93°
2026-04-25 15:48 29.00175 -57.15788 37996 ft 573 kts 93°
2026-04-25 15:49 29.00080 -57.06731 37982 ft 573 kts 93°
2026-04-25 15:49 29.00047 -56.97683 37996 ft 573 kts 91°
2026-04-25 15:50 29.00262 -56.88605 38005 ft 575 kts 89°
2026-04-25 15:50 29.00512 -56.79519 38004 ft 574 kts 90°
2026-04-25 15:51 29.00668 -56.73457 38001 ft 574 kts 90°
2026-04-25 15:51 29.00956 -56.61296 38005 ft 574 kts 90°
2026-04-25 15:52 29.01158 -56.52229 38006 ft 576 kts 90°
2026-04-25 15:52 29.01365 -56.43094 37994 ft 573 kts 90°
2026-04-25 15:53 29.01559 -56.34031 37999 ft 573 kts 91°
2026-04-25 15:53 29.01743 -56.24995 38001 ft 574 kts 90°
2026-04-25 15:54 29.01929 -56.15910 38008 ft 574 kts 91°
2026-04-25 15:54 29.02103 -56.06785 38010 ft 575 kts 90°
2026-04-25 15:55 29.02272 -55.97652 38002 ft 575 kts 90°
2026-04-25 15:55 29.02441 -55.88566 38006 ft 574 kts 91°
2026-04-25 15:56 29.02597 -55.79442 38006 ft 576 kts 91°
2026-04-25 15:56 29.02747 -55.70348 37994 ft 576 kts 90°
2026-04-25 15:57 29.02892 -55.61231 37991 ft 576 kts 90°
2026-04-25 15:57 29.03036 -55.52074 37992 ft 576 kts 90°
2026-04-25 15:58 29.03165 -55.42989 37994 ft 576 kts 91°
2026-04-25 15:58 29.03296 -55.33849 37992 ft 577 kts 90°
2026-04-25 15:59 29.03412 -55.24708 38002 ft 577 kts 91°
2026-04-25 15:59 29.03529 -55.15566 37996 ft 578 kts 91°
2026-04-25 16:00 29.03604 -55.09481 37991 ft 577 kts 91°
2026-04-25 16:00 29.03738 -54.97269 37999 ft 578 kts 90°
2026-04-25 16:01 29.03836 -54.88109 37999 ft 579 kts 90°
2026-04-25 16:01 29.03927 -54.78921 38003 ft 579 kts 90°
2026-04-25 16:02 29.04017 -54.69726 37998 ft 579 kts 91°
2026-04-25 16:02 29.04095 -54.60566 37983 ft 579 kts 90°
2026-04-25 16:03 29.04166 -54.51404 37999 ft 580 kts 91°
2026-04-25 16:03 29.04230 -54.42222 38000 ft 580 kts 90°
2026-04-25 16:04 29.04289 -54.33032 37994 ft 580 kts 91°
2026-04-25 16:04 29.04346 -54.23806 38001 ft 580 kts 91°
2026-04-25 16:05 29.04387 -54.14633 37997 ft 581 kts 91°
2026-04-25 16:06 29.04449 -54.00759 37994 ft 581 kts 91°
2026-04-25 16:06 29.04482 -53.91554 37992 ft 581 kts 91°
2026-04-25 16:07 29.04509 -53.82385 37999 ft 581 kts 91°
2026-04-25 16:07 29.04527 -53.73195 37986 ft 581 kts 91°
2026-04-25 16:08 29.04537 -53.63961 37993 ft 581 kts 91°
2026-04-25 16:08 29.04543 -53.54776 37990 ft 580 kts 91°
2026-04-25 16:09 29.04543 -53.45529 37987 ft 581 kts 91°
2026-04-25 16:09 29.04541 -53.36337 37994 ft 581 kts 91°
2026-04-25 16:10 29.04527 -53.27157 37991 ft 581 kts 91°
2026-04-25 16:10 29.04504 -53.17944 38011 ft 580 kts 91°
2026-04-25 16:11 29.04479 -53.08734 37996 ft 580 kts 92°
2026-04-25 16:11 29.04449 -52.99575 37982 ft 580 kts 92°
2026-04-25 16:12 29.04410 -52.90404 37993 ft 579 kts 91°
2026-04-25 16:12 29.04367 -52.81207 37997 ft 580 kts 92°
2026-04-25 16:13 29.04320 -52.72055 37990 ft 580 kts 91°
2026-04-25 16:13 29.04262 -52.62866 37986 ft 580 kts 91°
2026-04-25 16:14 29.04197 -52.53692 37974 ft 580 kts 91°
2026-04-25 16:14 29.04130 -52.44452 37976 ft 580 kts 91°
2026-04-25 16:15 29.04056 -52.35257 37975 ft 580 kts 92°
2026-04-25 16:15 29.03974 -52.26087 37976 ft 580 kts 92°
2026-04-25 16:16 29.03886 -52.16867 37974 ft 580 kts 92°
2026-04-25 16:16 29.03795 -52.07735 37988 ft 580 kts 92°
2026-04-25 16:17 29.03694 -51.98551 37979 ft 580 kts 92°
2026-04-25 16:17 29.03584 -51.89349 37974 ft 580 kts 92°
2026-04-25 16:18 29.03474 -51.80156 37971 ft 580 kts 92°
2026-04-25 16:18 29.03354 -51.70942 37976 ft 581 kts 92°
2026-04-25 16:19 29.03231 -51.61773 37978 ft 581 kts 92°
2026-04-25 16:19 29.03098 -51.52527 37979 ft 582 kts 92°
2026-04-25 16:20 29.02885 -51.38723 37974 ft 582 kts 92°
2026-04-25 16:21 29.02667 -51.24908 37972 ft 582 kts 93°
2026-04-25 16:21 29.02508 -51.15652 37952 ft 584 kts 92°
2026-04-25 16:22 29.02348 -51.06397 37962 ft 587 kts 92°
2026-04-25 16:22 29.02174 -50.97116 37978 ft 589 kts 93°
2026-04-25 16:23 29.01994 -50.87758 37985 ft 589 kts 92°
2026-04-25 16:23 29.01809 -50.78453 37983 ft 590 kts 92°
2026-04-25 16:24 29.01618 -50.69082 37989 ft 590 kts 92°
2026-04-25 16:24 29.01421 -50.59731 37985 ft 590 kts 92°
2026-04-25 16:25 29.01212 -50.50391 37991 ft 591 kts 92°
2026-04-25 16:25 29.01007 -50.41042 37999 ft 590 kts 92°
2026-04-25 16:26 29.00795 -50.31694 37985 ft 591 kts 93°
2026-04-25 16:26 29.00568 -50.22354 37995 ft 592 kts 93°
2026-04-25 16:27 29.00330 -50.12962 37997 ft 593 kts 92°
2026-04-25 16:27 29.00093 -50.03579 37999 ft 594 kts 93°
2026-04-25 16:28 29.00067 -49.94172 38000 ft 594 kts 90°
2026-04-25 16:28 29.00245 -49.84795 38006 ft 595 kts 89°
2026-04-25 16:29 29.00428 -49.75332 37995 ft 594 kts 89°
2026-04-25 16:29 29.00590 -49.65926 38008 ft 594 kts 89°
2026-04-25 16:30 29.00741 -49.56559 38000 ft 594 kts 89°
2026-04-25 16:30 29.00880 -49.47129 38008 ft 594 kts 89°
2026-04-25 16:31 29.01015 -49.37680 38002 ft 593 kts 89°
2026-04-25 16:31 29.01140 -49.28316 38008 ft 594 kts 90°
2026-04-25 16:32 29.01263 -49.18929 38010 ft 593 kts 89°
2026-04-25 16:32 29.01376 -49.09546 38003 ft 593 kts 89°
2026-04-25 16:33 29.01483 -49.00169 38000 ft 593 kts 89°
2026-04-25 16:33 29.01583 -48.90715 38002 ft 593 kts 89°
2026-04-25 16:34 29.01678 -48.81365 38013 ft 593 kts 90°
2026-04-25 16:34 29.01770 -48.71974 38009 ft 592 kts 89°
2026-04-25 16:35 29.01847 -48.62604 38010 ft 592 kts 89°
2026-04-25 16:35 29.01922 -48.53208 38018 ft 592 kts 89°
2026-04-25 16:36 29.01993 -48.43811 38011 ft 591 kts 89°
2026-04-25 16:36 29.02049 -48.34498 38023 ft 591 kts 89°
2026-04-25 16:37 29.02099 -48.26656 38018 ft 591 kts 89°
2026-04-25 16:37 29.02159 -48.15740 38022 ft 591 kts 89°
2026-04-25 16:38 29.02194 -48.06372 38023 ft 590 kts 89°
2026-04-25 16:38 29.02234 -47.97057 38022 ft 589 kts 89°
2026-04-25 16:39 29.02261 -47.87727 38031 ft 589 kts 89°
2026-04-25 16:39 29.02285 -47.78339 38032 ft 589 kts 89°
2026-04-25 16:40 29.02302 -47.69040 38045 ft 588 kts 89°
2026-04-25 16:40 29.02314 -47.59736 38044 ft 589 kts 90°
2026-04-25 16:41 29.02316 -47.50366 38057 ft 588 kts 89°
2026-04-25 16:41 29.02311 -47.36406 38049 ft 588 kts 90°
2026-04-25 16:42 29.02299 -47.27025 38035 ft 589 kts 90°
2026-04-25 16:42 29.02277 -47.17750 38043 ft 588 kts 90°
2026-04-25 16:43 29.02250 -47.08426 38042 ft 588 kts 90°
2026-04-25 16:43 29.02217 -46.99123 38051 ft 588 kts 89°
2026-04-25 16:44 29.02179 -46.89767 38050 ft 587 kts 89°
2026-04-25 16:44 29.02142 -46.80482 38048 ft 588 kts 89°
2026-04-25 16:45 29.02088 -46.71200 38044 ft 587 kts 89°
2026-04-25 16:45 29.02032 -46.61874 38053 ft 586 kts 90°
2026-04-25 16:46 29.01965 -46.52615 38045 ft 587 kts 89°
2026-04-25 16:46 29.01917 -46.46427 38048 ft 586 kts 89°
2026-04-25 16:47 29.01819 -46.34045 38043 ft 586 kts 90°
2026-04-25 16:47 29.01739 -46.24771 38049 ft 586 kts 90°
2026-04-25 16:48 29.01649 -46.15452 38048 ft 585 kts 90°
2026-04-25 16:48 29.01552 -46.06180 38046 ft 585 kts 90°
2026-04-25 16:49 29.01449 -45.96980 38050 ft 584 kts 90°
2026-04-25 16:49 29.01341 -45.87708 38044 ft 584 kts 90°
2026-04-25 16:50 29.01227 -45.78478 38048 ft 584 kts 90°
2026-04-25 16:50 29.01107 -45.69223 38054 ft 584 kts 90°
2026-04-25 16:51 29.00979 -45.59967 38047 ft 584 kts 90°
2026-04-25 16:51 29.00889 -45.53799 38044 ft 584 kts 89°
2026-04-25 16:52 29.00707 -45.41461 38035 ft 584 kts 90°
2026-04-25 16:52 29.00560 -45.32199 38040 ft 584 kts 90°
2026-04-25 16:53 29.00330 -45.18319 38044 ft 584 kts 90°
2026-04-25 16:54 29.00114 -45.09106 38041 ft 583 kts 92°
2026-04-25 16:54 28.99147 -44.99879 38040 ft 583 kts 101°
2026-04-25 16:55 28.97160 -44.90941 38043 ft 582 kts 110°
2026-04-25 16:55 28.94415 -44.82325 38040 ft 581 kts 113°
2026-04-25 16:56 28.91566 -44.73684 38043 ft 581 kts 112°
2026-04-25 16:56 28.88760 -44.65075 38050 ft 581 kts 112°
2026-04-25 16:57 28.86018 -44.56582 38051 ft 580 kts 112°
2026-04-25 16:57 28.83219 -44.47935 38055 ft 580 kts 113°
2026-04-25 16:58 28.80436 -44.39357 38066 ft 581 kts 112°
2026-04-25 16:58 28.77630 -44.30736 38062 ft 581 kts 113°
2026-04-25 16:59 28.74815 -44.22095 38074 ft 580 kts 113°
2026-04-25 16:59 28.72006 -44.13521 38072 ft 582 kts 113°
2026-04-25 17:00 28.69184 -44.04897 38076 ft 582 kts 113°
2026-04-25 17:00 28.66362 -43.96297 38086 ft 582 kts 113°
2026-04-25 17:01 28.63513 -43.87663 38083 ft 583 kts 113°
2026-04-25 17:01 28.60684 -43.79092 38085 ft 582 kts 112°
2026-04-25 17:02 28.57838 -43.70486 38088 ft 582 kts 112°
2026-04-25 17:02 28.54990 -43.61895 38083 ft 583 kts 112°
2026-04-25 17:03 28.52125 -43.53264 38085 ft 582 kts 112°
2026-04-25 17:03 28.49267 -43.44709 38091 ft 583 kts 112°
2026-04-25 17:04 28.46390 -43.36094 38092 ft 582 kts 112°
2026-04-25 17:04 28.43519 -43.27517 38074 ft 582 kts 113°
2026-04-25 17:05 28.40634 -43.18930 38083 ft 583 kts 113°
2026-04-25 17:05 28.36323 -43.06123 38075 ft 582 kts 113°
2026-04-25 17:06 28.33412 -42.97518 38081 ft 583 kts 113°
2026-04-25 17:06 28.30510 -42.88945 38091 ft 584 kts 113°
2026-04-25 17:07 28.27616 -42.80412 38088 ft 583 kts 113°
2026-04-25 17:07 28.24683 -42.71805 38092 ft 585 kts 112°
2026-04-25 17:08 28.21764 -42.63232 38076 ft 584 kts 113°
2026-04-25 17:08 28.18842 -42.54686 38091 ft 584 kts 113°
2026-04-25 17:09 28.15906 -42.46121 38104 ft 585 kts 112°
2026-04-25 17:09 28.12970 -42.37566 38091 ft 585 kts 112°
2026-04-25 17:10 28.10016 -42.28977 38089 ft 586 kts 113°
2026-04-25 17:10 28.07058 -42.20401 38098 ft 585 kts 113°
2026-04-25 17:11 28.04095 -42.11830 38093 ft 584 kts 113°
2026-04-25 17:11 28.01122 -42.03287 38105 ft 585 kts 115°
2026-04-25 17:12 27.97620 -41.95025 38103 ft 584 kts 122°
2026-04-25 17:12 27.93689 -41.87021 38105 ft 583 kts 123°
2026-04-25 17:13 27.91046 -41.81701 38112 ft 585 kts 122°
2026-04-25 17:13 27.87768 -41.75065 38456 ft 584 kts 122°
2026-04-25 17:13 27.85791 -41.71048 38705 ft 583 kts 122°
2026-04-25 17:14 27.83828 -41.67063 38896 ft 583 kts 122°
2026-04-25 17:14 27.81864 -41.63082 39060 ft 584 kts 122°
2026-04-25 17:14 27.77905 -41.55055 39103 ft 587 kts 122°
2026-04-25 17:15 27.73924 -41.46989 39101 ft 586 kts 122°
2026-04-25 17:15 27.69970 -41.38998 39100 ft 586 kts 122°
2026-04-25 17:16 27.65992 -41.30970 39096 ft 586 kts 122°
2026-04-25 17:16 27.62037 -41.23009 39097 ft 585 kts 123°
2026-04-25 17:17 27.58050 -41.15012 39096 ft 586 kts 123°
2026-04-25 17:17 27.54055 -41.06997 39098 ft 586 kts 122°
2026-04-25 17:18 27.50055 -40.98994 39097 ft 587 kts 122°
2026-04-25 17:18 27.46064 -40.91013 39097 ft 586 kts 122°
2026-04-25 17:19 27.42083 -40.83078 39095 ft 586 kts 123°
2026-04-25 17:19 27.38061 -40.75087 39094 ft 586 kts 122°
2026-04-25 17:20 27.34076 -40.67159 39095 ft 585 kts 122°
2026-04-25 17:20 27.30071 -40.59224 39094 ft 586 kts 123°
2026-04-25 17:21 27.26042 -40.51247 39094 ft 586 kts 123°
2026-04-25 17:21 27.22035 -40.43330 39098 ft 586 kts 122°
2026-04-25 17:22 27.18674 -40.36704 39093 ft 586 kts 122°
2026-04-25 17:22 27.13977 -40.27446 39094 ft 587 kts 123°
2026-04-25 17:23 27.09934 -40.19487 39107 ft 586 kts 122°
2026-04-25 17:23 27.05903 -40.11583 39094 ft 586 kts 123°
2026-04-25 17:24 27.01853 -40.03652 39098 ft 586 kts 122°
2026-04-25 17:24 26.97920 -39.95661 39106 ft 588 kts 120°
2026-04-25 17:25 26.94126 -39.87539 39109 ft 587 kts 120°
2026-04-25 17:25 26.90333 -39.79429 39106 ft 588 kts 120°
2026-04-25 17:26 26.86534 -39.71344 39106 ft 588 kts 120°
2026-04-25 17:26 26.82750 -39.63298 39105 ft 588 kts 120°
2026-04-25 17:27 26.78951 -39.55226 39105 ft 587 kts 120°
2026-04-25 17:27 26.76402 -39.49836 39103 ft 588 kts 120°
2026-04-25 17:28 26.71323 -39.39101 39099 ft 589 kts 120°
2026-04-25 17:28 26.67475 -39.30988 39097 ft 588 kts 120°
2026-04-25 17:29 26.63665 -39.22975 39099 ft 589 kts 120°
2026-04-25 17:29 26.59816 -39.14880 39100 ft 588 kts 120°
2026-04-25 17:30 26.55978 -39.06831 39096 ft 589 kts 120°
2026-04-25 17:30 26.52129 -38.98770 39099 ft 589 kts 120°
2026-04-25 17:31 26.48260 -38.90692 39094 ft 589 kts 120°
2026-04-25 17:31 26.44406 -38.82664 39095 ft 589 kts 120°
2026-04-25 17:32 26.40540 -38.74620 39091 ft 589 kts 120°
2026-04-25 17:32 26.36687 -38.66602 39091 ft 589 kts 120°
2026-04-25 17:33 26.32828 -38.58602 39090 ft 590 kts 120°
2026-04-25 17:33 26.28951 -38.50578 39091 ft 589 kts 120°
2026-04-25 17:34 26.25052 -38.42529 39094 ft 589 kts 120°
2026-04-25 17:34 26.21184 -38.34547 39087 ft 590 kts 120°
2026-04-25 17:35 26.17285 -38.26517 39084 ft 589 kts 120°
2026-04-25 17:35 26.13372 -38.18473 39087 ft 590 kts 120°
2026-04-25 17:36 26.09492 -38.10512 39086 ft 590 kts 120°
2026-04-25 17:36 26.05571 -38.02486 39085 ft 590 kts 120°
2026-04-25 17:37 26.01649 -37.94474 39085 ft 591 kts 120°
2026-04-25 17:37 25.97718 -37.86449 39085 ft 591 kts 120°
2026-04-25 17:38 25.95117 -37.81155 39085 ft 591 kts 120°
2026-04-25 17:38 25.89876 -37.70493 39084 ft 591 kts 120°
2026-04-25 17:39 25.85932 -37.62495 39084 ft 590 kts 120°
2026-04-25 17:39 25.81995 -37.54511 39084 ft 590 kts 120°
2026-04-25 17:40 25.78055 -37.46544 39084 ft 591 kts 120°
2026-04-25 17:40 25.74129 -37.38611 39084 ft 590 kts 120°
2026-04-25 17:41 25.70171 -37.30636 39080 ft 590 kts 120°
2026-04-25 17:41 25.66231 -37.22709 39083 ft 590 kts 121°
2026-04-25 17:42 25.62273 -37.14759 39082 ft 589 kts 121°
2026-04-25 17:42 25.58325 -37.06849 39083 ft 590 kts 121°
2026-04-25 17:43 25.54374 -36.98937 39083 ft 590 kts 121°
2026-04-25 17:43 25.50392 -36.90980 39086 ft 589 kts 121°
2026-04-25 17:44 25.46443 -36.83115 39083 ft 589 kts 121°
2026-04-25 17:44 25.42439 -36.75151 39083 ft 590 kts 121°
2026-04-25 17:45 25.39794 -36.69894 39083 ft 589 kts 120°
2026-04-25 17:45 25.34505 -36.59385 39086 ft 589 kts 121°
2026-04-25 17:46 25.30492 -36.51448 39082 ft 590 kts 121°
2026-04-25 17:46 25.26496 -36.43549 39085 ft 589 kts 120°
2026-04-25 17:47 25.22525 -36.35713 39080 ft 590 kts 120°
2026-04-25 17:47 25.18515 -36.27802 39081 ft 589 kts 121°
2026-04-25 17:48 25.12521 -36.16014 39082 ft 589 kts 121°
2026-04-25 17:49 25.08520 -36.08161 39082 ft 589 kts 121°
2026-04-25 17:49 25.04500 -36.00281 39080 ft 589 kts 121°
2026-04-25 17:50 25.00502 -35.92464 39088 ft 589 kts 121°
2026-04-25 17:50 24.96467 -35.84590 39088 ft 589 kts 121°
2026-04-25 17:51 24.92452 -35.76763 39091 ft 589 kts 121°
2026-04-25 17:51 24.88428 -35.68941 39091 ft 588 kts 121°
2026-04-25 17:52 24.84410 -35.61135 39092 ft 588 kts 121°
2026-04-25 17:52 24.80380 -35.53315 39095 ft 588 kts 121°
2026-04-25 17:53 24.76330 -35.45475 39098 ft 588 kts 121°
2026-04-25 17:53 24.72286 -35.37658 39100 ft 588 kts 121°
2026-04-25 17:54 24.68267 -35.29901 39097 ft 587 kts 121°
2026-04-25 17:54 24.64226 -35.22131 39101 ft 588 kts 121°
2026-04-25 17:55 24.60163 -35.14318 39103 ft 588 kts 121°
2026-04-25 17:55 24.56107 -35.06516 39104 ft 588 kts 121°
2026-04-25 17:56 24.52055 -34.98751 39106 ft 587 kts 121°
2026-04-25 17:56 24.48025 -34.91038 39106 ft 587 kts 121°
2026-04-25 17:57 24.43953 -34.83254 39106 ft 586 kts 121°
2026-04-25 17:57 24.39899 -34.75519 39106 ft 586 kts 121°
2026-04-25 17:58 24.35855 -34.67821 39106 ft 586 kts 121°
2026-04-25 17:58 24.31803 -34.60102 39106 ft 586 kts 121°
2026-04-25 17:59 24.27747 -34.52404 39106 ft 586 kts 121°
2026-04-25 17:59 24.23640 -34.44630 39105 ft 586 kts 121°
2026-04-25 18:00 24.19580 -34.36933 39105 ft 586 kts 121°
2026-04-25 18:00 24.15499 -34.29222 39103 ft 586 kts 122°
2026-04-25 18:01 24.11419 -34.21520 39106 ft 586 kts 122°
2026-04-25 18:01 24.07342 -34.13842 39106 ft 585 kts 122°
2026-04-25 18:02 24.03264 -34.06162 39106 ft 585 kts 121°
2026-04-25 18:02 23.99187 -33.98529 39104 ft 585 kts 123°
2026-04-25 18:03 23.94883 -33.90979 39105 ft 584 kts 124°
2026-04-25 18:03 23.90526 -33.83477 39103 ft 584 kts 124°
2026-04-25 18:04 23.86198 -33.75985 39102 ft 583 kts 124°
2026-04-25 18:04 23.81889 -33.68512 39101 ft 584 kts 124°
2026-04-25 18:05 23.77569 -33.61008 39104 ft 584 kts 124°
2026-04-25 18:05 23.73247 -33.53512 39102 ft 584 kts 124°
2026-04-25 18:06 23.68941 -33.46057 39100 ft 584 kts 124°
2026-04-25 18:06 23.64593 -33.38551 39091 ft 584 kts 124°
2026-04-25 18:07 23.60289 -33.31121 39081 ft 583 kts 124°
2026-04-25 18:07 23.55964 -33.23669 39080 ft 583 kts 124°
2026-04-25 18:08 23.51632 -33.16222 39083 ft 583 kts 124°
2026-04-25 18:08 23.47287 -33.08754 39081 ft 583 kts 124°
2026-04-25 18:09 23.42968 -33.01344 39081 ft 583 kts 124°
2026-04-25 18:09 23.38612 -32.93883 39086 ft 582 kts 124°
2026-04-25 18:10 23.35000 -32.87700 39091 ft 582 kts 124°
2026-04-25 18:10 23.29930 -32.79044 39088 ft 582 kts 124°
2026-04-25 18:11 23.25609 -32.71678 39087 ft 582 kts 124°
2026-04-25 18:11 23.21249 -32.64249 39089 ft 581 kts 124°
2026-04-25 18:12 23.16923 -32.56896 39087 ft 581 kts 124°
2026-04-25 18:12 23.12564 -32.49496 39088 ft 581 kts 124°
2026-04-25 18:13 23.08200 -32.42097 39090 ft 581 kts 124°
2026-04-25 18:13 23.03853 -32.34742 39084 ft 580 kts 124°
2026-04-25 18:14 22.97352 -32.23749 39087 ft 579 kts 125°
2026-04-25 18:14 22.92996 -32.16398 39082 ft 579 kts 125°
2026-04-25 18:15 22.88642 -32.09069 39082 ft 579 kts 124°
2026-04-25 18:15 22.84286 -32.01744 39079 ft 578 kts 124°
2026-04-25 18:16 22.79927 -31.94419 39081 ft 578 kts 124°
2026-04-25 18:17 22.73391 -31.83460 39074 ft 578 kts 124°
2026-04-25 18:17 22.69036 -31.76167 39076 ft 578 kts 124°
2026-04-25 18:18 22.64667 -31.68867 39072 ft 578 kts 125°
2026-04-25 18:18 22.60307 -31.61589 39068 ft 578 kts 124°
2026-04-25 18:19 22.55937 -31.54300 39070 ft 577 kts 125°
2026-04-25 18:19 22.51562 -31.47016 39068 ft 577 kts 125°
2026-04-25 18:20 22.47217 -31.39793 39068 ft 576 kts 125°
2026-04-25 18:20 22.42847 -31.32540 39060 ft 576 kts 125°
2026-04-25 18:21 22.38488 -31.25316 39063 ft 576 kts 126°
2026-04-25 18:21 22.34113 -31.18070 39067 ft 575 kts 125°
2026-04-25 18:22 22.29760 -31.10876 39069 ft 575 kts 126°
2026-04-25 18:22 22.25374 -31.03630 39066 ft 574 kts 126°
2026-04-25 18:23 22.21017 -30.96449 39069 ft 574 kts 126°
2026-04-25 18:23 22.16638 -30.89237 39065 ft 573 kts 126°
2026-04-25 18:24 22.12297 -30.82097 39066 ft 573 kts 126°
2026-04-25 18:24 22.07929 -30.74926 39064 ft 572 kts 126°
2026-04-25 18:25 22.03575 -30.67782 39062 ft 571 kts 126°
2026-04-25 18:25 21.99196 -30.60617 39062 ft 571 kts 126°
2026-04-25 18:26 21.94827 -30.53468 39064 ft 571 kts 126°
2026-04-25 18:26 21.90465 -30.46341 39064 ft 571 kts 126°
2026-04-25 18:27 21.86106 -30.39227 39063 ft 570 kts 126°
2026-04-25 18:27 21.81760 -30.32150 39053 ft 569 kts 126°
2026-04-25 18:28 21.77419 -30.25085 39058 ft 569 kts 126°
2026-04-25 18:28 21.73053 -30.17988 39058 ft 568 kts 126°
2026-04-25 18:29 21.66511 -30.07366 39058 ft 567 kts 126°
2026-04-25 18:30 21.57803 -29.93266 39052 ft 566 kts 126°
2026-04-25 18:30 21.53450 -29.86229 39053 ft 566 kts 126°
2026-04-25 18:31 21.49094 -29.79201 39052 ft 566 kts 127°
2026-04-25 18:31 21.44592 -29.72331 39051 ft 564 kts 128°
2026-04-25 18:32 21.40020 -29.65477 39049 ft 564 kts 128°
2026-04-25 18:32 21.35493 -29.58659 39048 ft 564 kts 128°
2026-04-25 18:33 21.30960 -29.51817 39049 ft 563 kts 128°
2026-04-25 18:33 21.26404 -29.44941 39044 ft 563 kts 128°
2026-04-25 18:34 21.21875 -29.38111 39044 ft 563 kts 128°
2026-04-25 18:34 21.17361 -29.31311 39039 ft 562 kts 128°
2026-04-25 18:35 21.12837 -29.24508 39041 ft 562 kts 128°
2026-04-25 18:35 21.08290 -29.17683 39042 ft 562 kts 128°
2026-04-25 18:36 21.03765 -29.10891 39038 ft 561 kts 128°
2026-04-25 18:36 20.99247 -29.04117 39040 ft 561 kts 128°
2026-04-25 18:37 20.94721 -28.97347 39042 ft 561 kts 128°
2026-04-25 18:37 20.90187 -28.90568 39042 ft 560 kts 128°
2026-04-25 18:38 20.85654 -28.83799 39042 ft 559 kts 128°
2026-04-25 18:38 20.81114 -28.77031 39041 ft 559 kts 128°
2026-04-25 18:39 20.76585 -28.70283 39039 ft 558 kts 128°
2026-04-25 18:39 20.72086 -28.63588 39038 ft 557 kts 128°
2026-04-25 18:40 20.67574 -28.56881 39038 ft 556 kts 128°
2026-04-25 18:40 20.63060 -28.50181 39037 ft 556 kts 128°
2026-04-25 18:41 20.58559 -28.43509 39034 ft 555 kts 128°
2026-04-25 18:41 20.54049 -28.36832 39036 ft 555 kts 128°
2026-04-25 18:42 20.51031 -28.32365 39030 ft 555 kts 129°
2026-04-25 18:42 20.45042 -28.23512 39032 ft 553 kts 129°
2026-04-25 18:43 20.40545 -28.16877 39031 ft 553 kts 129°
2026-04-25 18:43 20.36021 -28.10207 39032 ft 552 kts 129°
2026-04-25 18:44 20.31516 -28.03576 39030 ft 553 kts 129°
2026-04-25 18:44 20.27022 -27.96965 39028 ft 552 kts 129°
2026-04-25 18:45 20.22519 -27.90348 39028 ft 551 kts 129°
2026-04-25 18:45 20.18032 -27.83763 39025 ft 550 kts 129°
2026-04-25 18:46 20.13553 -27.77202 39025 ft 550 kts 129°
2026-04-25 18:46 20.09042 -27.70596 39026 ft 550 kts 129°
2026-04-25 18:47 20.04563 -27.64044 39023 ft 550 kts 129°
2026-04-25 18:47 20.00046 -27.57448 39023 ft 550 kts 129°
2026-04-25 18:48 19.95565 -27.50906 39022 ft 549 kts 129°
2026-04-25 18:48 19.91071 -27.44353 39022 ft 548 kts 129°
2026-04-25 18:49 19.86579 -27.37815 39020 ft 547 kts 129°
2026-04-25 18:49 19.82103 -27.31307 39017 ft 547 kts 129°
2026-04-25 18:50 19.77607 -27.24775 39019 ft 547 kts 129°
2026-04-25 18:50 19.73128 -27.18272 39018 ft 546 kts 129°
2026-04-25 18:51 19.70142 -27.13943 39017 ft 546 kts 129°
2026-04-25 18:51 19.64182 -27.05310 39016 ft 545 kts 129°
2026-04-25 18:52 19.59710 -26.98839 39014 ft 544 kts 129°
2026-04-25 18:52 19.55216 -26.92344 39015 ft 545 kts 129°
2026-04-25 18:53 19.50760 -26.85911 39013 ft 544 kts 129°
2026-04-25 18:53 19.46288 -26.79462 39011 ft 543 kts 129°
2026-04-25 18:54 19.39579 -26.69797 39010 ft 543 kts 129°
2026-04-25 18:55 19.35116 -26.63379 39013 ft 542 kts 129°
2026-04-25 18:55 19.30630 -26.56934 39010 ft 542 kts 129°
2026-04-25 18:56 19.26183 -26.50552 39002 ft 541 kts 129°
2026-04-25 18:56 19.21717 -26.44148 39003 ft 541 kts 129°
2026-04-25 18:57 19.17259 -26.37761 38999 ft 540 kts 129°
2026-04-25 18:57 19.12784 -26.31354 38990 ft 538 kts 129°
2026-04-25 18:58 19.08331 -26.24990 38989 ft 538 kts 129°
2026-04-25 18:58 19.01681 -26.15492 38990 ft 538 kts 129°
2026-04-25 18:59 18.92785 -26.02779 38983 ft 537 kts 129°
2026-04-25 19:00 18.86160 -25.93224 38982 ft 536 kts 129°
2026-04-25 19:01 18.79593 -25.83756 38986 ft 535 kts 129°
2026-04-25 19:01 18.75174 -25.77396 38992 ft 536 kts 129°
2026-04-25 19:02 18.68572 -25.67897 38993 ft 534 kts 129°
2026-04-25 19:03 18.63472 -25.60577 38993 ft 534 kts 129°
2026-04-25 19:03 18.57612 -25.52173 38991 ft 533 kts 129°
2026-04-25 19:04 18.51026 -25.42743 38987 ft 533 kts 129°
2026-04-25 19:05 18.42233 -25.30168 38986 ft 532 kts 130°
2026-04-25 19:06 18.37862 -25.23927 38983 ft 531 kts 130°
2026-04-25 19:06 18.31295 -25.14564 38984 ft 530 kts 130°
2026-04-25 19:07 18.24723 -25.05212 38987 ft 529 kts 129°
2026-04-25 19:08 18.18157 -24.95871 38981 ft 528 kts 129°
2026-04-25 19:09 18.10157 -24.84518 38981 ft 527 kts 129°
2026-04-25 19:10 18.02868 -24.74186 38978 ft 528 kts 129°
2026-04-25 19:10 17.98497 -24.67999 38980 ft 528 kts 129°
2026-04-25 19:11 17.94116 -24.61805 38974 ft 527 kts 129°
2026-04-25 19:11 17.89760 -24.55648 38977 ft 528 kts 129°
2026-04-25 19:12 17.85381 -24.49464 38975 ft 528 kts 129°
2026-04-25 19:12 17.80994 -24.43274 38977 ft 528 kts 129°
2026-04-25 19:13 17.76630 -24.37119 38973 ft 527 kts 129°
2026-04-25 19:13 17.72234 -24.30928 38968 ft 527 kts 129°
2026-04-25 19:14 17.67836 -24.24802 38970 ft 527 kts 130°
2026-04-25 19:14 17.63431 -24.18700 38963 ft 527 kts 130°
2026-04-25 19:15 17.59014 -24.12577 38958 ft 528 kts 130°
2026-04-25 19:15 17.54584 -24.06437 38955 ft 527 kts 130°
2026-04-25 19:16 17.50154 -24.00297 38959 ft 528 kts 130°
2026-04-25 19:16 17.45754 -23.94206 38960 ft 527 kts 130°
2026-04-25 19:17 17.41328 -23.88082 38960 ft 527 kts 130°
2026-04-25 19:17 17.36906 -23.81968 38959 ft 527 kts 130°
2026-04-25 19:18 17.32464 -23.75835 38956 ft 527 kts 130°
2026-04-25 19:18 17.28036 -23.69728 38957 ft 527 kts 130°
2026-04-25 19:19 17.23619 -23.63636 38956 ft 526 kts 130°
2026-04-25 19:19 17.19202 -23.57553 38954 ft 526 kts 130°
2026-04-25 19:20 17.14766 -23.51450 38953 ft 526 kts 130°
2026-04-25 19:20 17.10356 -23.45385 38956 ft 526 kts 130°
2026-04-25 19:21 17.05931 -23.39308 38959 ft 526 kts 130°
2026-04-25 19:21 16.99307 -23.30215 38958 ft 525 kts 130°
2026-04-25 19:22 16.94870 -23.24135 38960 ft 525 kts 130°
2026-04-25 19:23 16.88244 -23.15058 38956 ft 524 kts 130°
2026-04-25 19:23 16.81617 -23.05990 38951 ft 524 kts 130°
2026-04-25 19:24 16.77283 -22.99871 38949 ft 525 kts 127°
2026-04-25 19:25 16.70527 -22.86338 38944 ft 530 kts 112°
2026-04-25 19:25 16.68025 -22.79129 38940 ft 529 kts 111°
2026-04-25 19:26 16.65549 -22.71935 38940 ft 530 kts 111°
2026-04-25 19:26 16.63058 -22.64758 38936 ft 530 kts 111°
2026-04-25 19:27 16.61365 -22.59900 38938 ft 530 kts 111°
2026-04-25 19:27 16.58018 -22.50330 38934 ft 530 kts 111°
2026-04-25 19:28 16.55493 -22.43118 38936 ft 529 kts 111°
2026-04-25 19:28 16.52979 -22.35947 38937 ft 529 kts 111°
2026-04-25 19:29 16.50450 -22.28740 38935 ft 528 kts 112°
2026-04-25 19:29 16.47923 -22.21555 38935 ft 529 kts 112°
2026-04-25 19:30 16.45407 -22.14409 38934 ft 529 kts 111°
2026-04-25 19:30 16.42871 -22.07217 38931 ft 529 kts 111°
2026-04-25 19:31 16.40354 -22.00078 38931 ft 528 kts 111°
2026-04-25 19:31 16.37811 -21.92877 38929 ft 529 kts 112°
2026-04-25 19:32 16.35287 -21.85734 38926 ft 528 kts 111°
2026-04-25 19:32 16.33597 -21.80960 38926 ft 528 kts 111°
2026-04-25 19:33 16.30210 -21.71395 38927 ft 529 kts 111°
2026-04-25 19:33 16.27647 -21.64190 38926 ft 528 kts 112°
2026-04-25 19:34 16.25080 -21.57056 38924 ft 527 kts 112°
2026-04-25 19:34 16.22516 -21.49934 38922 ft 528 kts 112°
2026-04-25 19:35 16.19945 -21.42791 38919 ft 527 kts 112°
2026-04-25 19:35 16.17364 -21.35619 38921 ft 527 kts 112°
2026-04-25 19:36 16.14807 -21.28525 38917 ft 527 kts 112°
2026-04-25 19:36 16.12238 -21.21408 38914 ft 527 kts 112°
2026-04-25 19:37 16.09662 -21.14279 38909 ft 526 kts 112°
2026-04-25 19:37 16.07083 -21.07144 38907 ft 526 kts 112°
2026-04-25 19:38 16.04511 -21.00040 38905 ft 526 kts 112°
2026-04-25 19:38 16.01938 -20.92945 38903 ft 530 kts 112°
2026-04-25 19:39 15.99317 -20.85721 38905 ft 531 kts 112°
2026-04-25 19:39 15.96716 -20.78563 38911 ft 532 kts 112°
2026-04-25 19:40 15.94116 -20.71413 38914 ft 532 kts 112°
2026-04-25 19:40 15.91493 -20.64209 38912 ft 531 kts 112°
2026-04-25 19:41 15.88878 -20.57037 38910 ft 531 kts 112°
2026-04-25 19:41 15.87153 -20.52313 38907 ft 531 kts 112°
2026-04-25 19:42 15.83663 -20.42760 38908 ft 530 kts 112°
2026-04-25 19:42 15.81050 -20.35620 38904 ft 531 kts 112°
2026-04-25 19:43 15.78438 -20.28482 38901 ft 530 kts 112°
2026-04-25 19:43 15.75817 -20.21332 38897 ft 529 kts 112°
2026-04-25 19:44 15.73208 -20.14222 38899 ft 529 kts 112°
2026-04-25 19:44 15.70587 -20.07079 38897 ft 529 kts 112°
2026-04-25 19:45 15.67974 -19.99973 38899 ft 529 kts 112°
2026-04-25 19:45 15.65407 -19.92840 38902 ft 529 kts 111°
2026-04-25 19:46 15.62852 -19.85662 38903 ft 529 kts 111°
2026-04-25 19:46 15.60315 -19.78549 38899 ft 528 kts 111°
2026-04-25 19:47 15.57777 -19.71450 38895 ft 524 kts 111°
2026-04-25 19:47 15.55247 -19.64379 38892 ft 522 kts 111°
2026-04-25 19:48 15.52720 -19.57328 38890 ft 522 kts 111°
2026-04-25 19:48 15.51461 -19.53814 38713 ft 521 kts 111°
2026-04-25 19:48 15.50215 -19.50340 38394 ft 518 kts 111°
2026-04-25 19:49 15.48951 -19.46816 38024 ft 514 kts 111°
2026-04-25 19:49 15.48549 -19.45696 37891 ft 513 kts 111°
2026-04-25 19:49 15.46373 -19.39975 36979 ft 511 kts 115°
2026-04-25 19:49 15.44858 -19.36662 36362 ft 511 kts 117°
2026-04-25 19:50 15.41648 -19.30025 34941 ft 512 kts 117°
2026-04-25 19:50 15.40051 -19.26739 34245 ft 513 kts 117°
2026-04-25 19:50 15.38463 -19.23467 33538 ft 513 kts 117°
2026-04-25 19:51 15.36851 -19.20138 32813 ft 514 kts 116°
2026-04-25 19:51 15.35255 -19.16837 32177 ft 515 kts 116°
2026-04-25 19:51 15.33655 -19.13527 31568 ft 516 kts 116°
2026-04-25 19:51 15.32059 -19.10226 30977 ft 516 kts 116°
2026-04-25 19:52 15.30455 -19.06908 30367 ft 515 kts 116°
2026-04-25 19:52 15.28866 -19.03623 29735 ft 515 kts 116°
2026-04-25 19:52 15.27240 -19.00265 29110 ft 519 kts 116°
2026-04-25 19:52 15.25619 -18.96916 28428 ft 520 kts 115°
2026-04-25 19:53 15.24013 -18.93597 27819 ft 519 kts 116°
2026-04-25 19:53 15.22396 -18.90257 27322 ft 516 kts 116°
2026-04-25 19:53 15.20804 -18.86971 26973 ft 515 kts 116°
2026-04-25 19:53 15.19201 -18.83665 26598 ft 513 kts 116°
2026-04-25 19:54 15.17605 -18.80376 26187 ft 508 kts 116°
2026-04-25 19:54 15.16026 -18.77123 25823 ft 503 kts 116°
2026-04-25 19:54 15.14470 -18.73919 25417 ft 499 kts 116°
2026-04-25 19:54 15.13947 -18.72843 25269 ft 498 kts 116°
2026-04-25 19:55 15.11384 -18.67571 24608 ft 489 kts 116°
2026-04-25 19:55 15.09863 -18.64441 24239 ft 485 kts 116°
2026-04-25 19:55 15.08607 -18.61858 23937 ft 482 kts 116°
2026-04-25 19:55 15.07158 -18.58878 23592 ft 478 kts 116°
2026-04-25 19:56 15.05676 -18.55834 23215 ft 474 kts 116°
2026-04-25 19:56 15.04186 -18.52776 22832 ft 471 kts 116°
2026-04-25 19:56 15.02723 -18.49774 22425 ft 467 kts 116°
2026-04-25 19:56 15.01266 -18.46783 22011 ft 463 kts 116°
2026-04-25 19:57 14.99826 -18.43828 21559 ft 460 kts 116°
2026-04-25 19:57 14.98382 -18.40870 21086 ft 456 kts 116°
2026-04-25 19:57 14.96958 -18.37950 20611 ft 453 kts 117°
2026-04-25 19:57 14.95558 -18.35081 20145 ft 450 kts 117°
2026-04-25 19:58 14.94152 -18.32203 19665 ft 447 kts 117°
2026-04-25 19:58 14.92752 -18.29336 19178 ft 444 kts 117°
2026-04-25 19:58 14.91366 -18.26501 18707 ft 441 kts 117°
2026-04-25 19:58 14.89986 -18.23678 18236 ft 439 kts 117°
2026-04-25 19:59 14.88625 -18.20894 17773 ft 436 kts 117°
2026-04-25 19:59 14.87262 -18.18107 17310 ft 434 kts 117°
2026-04-25 19:59 14.85901 -18.15329 16878 ft 430 kts 117°
2026-04-25 19:59 14.84552 -18.12574 16465 ft 426 kts 117°
2026-04-25 20:00 14.83223 -18.09864 16056 ft 422 kts 117°
2026-04-25 20:00 14.82336 -18.08054 15770 ft 420 kts 117°
2026-04-25 20:00 14.80592 -18.04496 15229 ft 415 kts 117°
2026-04-25 20:00 14.79300 -18.01861 14817 ft 411 kts 117°
2026-04-25 20:01 14.76738 -17.96635 13994 ft 404 kts 118°
2026-04-25 20:01 14.75482 -17.94076 13587 ft 400 kts 118°
2026-04-25 20:01 14.74218 -17.91503 13179 ft 396 kts 118°
2026-04-25 20:02 14.72987 -17.89000 12767 ft 392 kts 118°
2026-04-25 20:02 14.71756 -17.86496 12339 ft 389 kts 118°
2026-04-25 20:02 14.70533 -17.84012 11962 ft 386 kts 117°
2026-04-25 20:02 14.69313 -17.81530 11850 ft 389 kts 117°
2026-04-25 20:03 14.68087 -17.79038 11848 ft 390 kts 117°
2026-04-25 20:03 14.66855 -17.76532 11841 ft 386 kts 118°
2026-04-25 20:03 14.65674 -17.74128 11839 ft 370 kts 118°
2026-04-25 20:03 14.64533 -17.71810 11828 ft 354 kts 118°
2026-04-25 20:04 14.63437 -17.69579 11846 ft 340 kts 118°
2026-04-25 20:04 14.62391 -17.67453 11841 ft 326 kts 118°
2026-04-25 20:04 14.61386 -17.65410 11845 ft 313 kts 118°
2026-04-25 20:04 14.60413 -17.63439 11849 ft 304 kts 118°
2026-04-25 20:05 14.59445 -17.61478 11852 ft 306 kts 118°
2026-04-25 20:05 14.58480 -17.59525 11836 ft 306 kts 118°
2026-04-25 20:05 14.57506 -17.57550 11845 ft 306 kts 118°
2026-04-25 20:05 14.56545 -17.55603 11846 ft 306 kts 118°
2026-04-25 20:06 14.55569 -17.53630 11846 ft 306 kts 118°
2026-04-25 20:06 14.54601 -17.51668 11854 ft 306 kts 118°
2026-04-25 20:06 14.53637 -17.49713 11850 ft 306 kts 118°
2026-04-25 20:06 14.52668 -17.47751 11858 ft 307 kts 118°
2026-04-25 20:07 14.51705 -17.45801 11857 ft 307 kts 118°
2026-04-25 20:07 14.50734 -17.43838 11837 ft 306 kts 118°
2026-04-25 20:07 14.49765 -17.41877 11845 ft 306 kts 118°
2026-04-25 20:07 14.48796 -17.39918 11842 ft 306 kts 118°
2026-04-25 20:08 14.47830 -17.37963 11852 ft 306 kts 118°
2026-04-25 20:08 14.46871 -17.36024 11849 ft 306 kts 118°
2026-04-25 20:08 14.45896 -17.34051 11832 ft 306 kts 118°
2026-04-25 20:08 14.44936 -17.32115 11812 ft 305 kts 118°
2026-04-25 20:09 14.43963 -17.30146 11835 ft 306 kts 118°
2026-04-25 20:09 14.43002 -17.28205 11846 ft 305 kts 118°
2026-04-25 20:09 14.42042 -17.26266 11845 ft 305 kts 118°
2026-04-25 20:09 14.40880 -17.24422 11816 ft 303 kts 136°
2026-04-25 20:10 14.39785 -17.23552 11820 ft 301 kts 153°
2026-04-25 20:10 14.37095 -17.22886 11847 ft 299 kts 180°
2026-04-25 20:10 14.35004 -17.22916 11804 ft 294 kts 183°
2026-04-25 20:10 14.32958 -17.23018 11499 ft 295 kts 184°
2026-04-25 20:11 14.30907 -17.23138 11162 ft 296 kts 184°
2026-04-25 20:11 14.28844 -17.23264 10876 ft 294 kts 184°
2026-04-25 20:11 14.26799 -17.23392 10600 ft 293 kts 184°
2026-04-25 20:11 14.24757 -17.23529 10294 ft 293 kts 184°
2026-04-25 20:12 14.22743 -17.23668 10021 ft 292 kts 184°
2026-04-25 20:12 14.20704 -17.23814 9728 ft 291 kts 184°
2026-04-25 20:12 14.18674 -17.23963 9446 ft 290 kts 184°
2026-04-25 20:12 14.17329 -17.24063 9246 ft 290 kts 184°
2026-04-25 20:13 14.14645 -17.24262 8857 ft 290 kts 184°
2026-04-25 20:13 14.12636 -17.24409 8552 ft 290 kts 184°
2026-04-25 20:13 14.10613 -17.24555 8285 ft 288 kts 184°
2026-04-25 20:13 14.08641 -17.24692 8045 ft 277 kts 184°
2026-04-25 20:14 14.06747 -17.24819 7919 ft 268 kts 184°
2026-04-25 20:14 14.04891 -17.24943 7832 ft 261 kts 184°
2026-04-25 20:14 14.03099 -17.25064 7825 ft 254 kts 184°
2026-04-25 20:14 14.01310 -17.25185 7820 ft 256 kts 184°
2026-04-25 20:15 13.99532 -17.25306 7660 ft 254 kts 184°
2026-04-25 20:15 13.97763 -17.25431 7400 ft 256 kts 184°
2026-04-25 20:15 13.95984 -17.25561 7173 ft 255 kts 184°
2026-04-25 20:15 13.94209 -17.25695 6950 ft 255 kts 184°
2026-04-25 20:16 13.92440 -17.25831 6830 ft 252 kts 184°
2026-04-25 20:16 13.90653 -17.25971 6825 ft 255 kts 184°
2026-04-25 20:16 13.88890 -17.26108 6825 ft 256 kts 184°
2026-04-25 20:16 13.87106 -17.26248 6826 ft 256 kts 184°
2026-04-25 20:17 13.85317 -17.26384 6828 ft 255 kts 182°
2026-04-25 20:17 13.83590 -17.26124 6812 ft 254 kts 151°
2026-04-25 20:17 13.82336 -17.24895 6827 ft 251 kts 115°
2026-04-25 20:17 13.81925 -17.23163 6831 ft 249 kts 86°
2026-04-25 20:18 13.82329 -17.21450 6829 ft 246 kts 60°
2026-04-25 20:18 13.83433 -17.20134 6829 ft 244 kts 33°
2026-04-25 20:18 13.84993 -17.19471 6834 ft 244 kts 13°
2026-04-25 20:18 13.86645 -17.19104 6831 ft 243 kts 12°
2026-04-25 20:19 13.88314 -17.18739 6829 ft 243 kts 13°
2026-04-25 20:19 13.89973 -17.18366 6828 ft 244 kts 13°
2026-04-25 20:19 13.91642 -17.17983 6827 ft 244 kts 13°
2026-04-25 20:19 13.93314 -17.17593 6827 ft 244 kts 13°
2026-04-25 20:20 13.94978 -17.17201 6757 ft 242 kts 13°
2026-04-25 20:20 13.96619 -17.16812 6527 ft 242 kts 13°
2026-04-25 20:20 13.98281 -17.16418 6301 ft 242 kts 13°
2026-04-25 20:20 13.99918 -17.16028 6103 ft 241 kts 13°
2026-04-25 20:21 14.01544 -17.15641 5900 ft 239 kts 13°
2026-04-25 20:21 14.03170 -17.15254 5708 ft 238 kts 13°
2026-04-25 20:21 14.04791 -17.14869 5491 ft 237 kts 13°
2026-04-25 20:21 14.06404 -17.14484 5293 ft 236 kts 13°
2026-04-25 20:22 14.08020 -17.14099 5095 ft 235 kts 13°
2026-04-25 20:22 14.09078 -17.13847 4996 ft 232 kts 13°
2026-04-25 20:22 14.11168 -17.13348 4979 ft 233 kts 13°
2026-04-25 20:22 14.12763 -17.12968 4977 ft 234 kts 13°
2026-04-25 20:23 14.14363 -17.12585 4976 ft 234 kts 13°
2026-04-25 20:23 14.15964 -17.12203 4981 ft 234 kts 13°
2026-04-25 20:23 14.17557 -17.11822 4985 ft 234 kts 13°
2026-04-25 20:23 14.19137 -17.11445 4988 ft 234 kts 13°
2026-04-25 20:24 14.20738 -17.11063 4989 ft 234 kts 13°
2026-04-25 20:24 14.22329 -17.10683 4986 ft 234 kts 13°
2026-04-25 20:24 14.23920 -17.10302 4982 ft 233 kts 13°
2026-04-25 20:24 14.25502 -17.09925 4813 ft 232 kts 13°
2026-04-25 20:25 14.27078 -17.09549 4580 ft 232 kts 13°
2026-04-25 20:25 14.28665 -17.09171 4394 ft 230 kts 13°
2026-04-25 20:25 14.30227 -17.08797 4200 ft 229 kts 13°
2026-04-25 20:25 14.31770 -17.08429 4009 ft 228 kts 13°
2026-04-25 20:26 14.33307 -17.07971 3808 ft 227 kts 18°
2026-04-25 20:26 14.34806 -17.07447 3610 ft 226 kts 17°
2026-04-25 20:26 14.36347 -17.07100 3424 ft 225 kts
2026-04-25 20:26 14.37903 -17.06998 3238 ft 224 kts
2026-04-25 20:27 14.39460 -17.06998 3089 ft 221 kts
2026-04-25 20:27 14.41001 -17.07019 3020 ft 221 kts
2026-04-25 20:27 14.42553 -17.07041 3011 ft 222 kts
2026-04-25 20:27 14.44099 -17.07059 2990 ft 218 kts
2026-04-25 20:28 14.45597 -17.07075 2978 ft 209 kts
2026-04-25 20:28 14.47015 -17.07089 2975 ft 199 kts
2026-04-25 20:28 14.48381 -17.07103 2970 ft 188 kts
2026-04-25 20:28 14.49652 -17.07115 2965 ft 178 kts
2026-04-25 20:29 14.50896 -17.07126 2979 ft 178 kts
2026-04-25 20:29 14.52157 -17.07138 2811 ft 180 kts
2026-04-25 20:29 14.53407 -17.07150 2609 ft 180 kts
2026-04-25 20:29 14.54655 -17.07162 2357 ft 174 kts
2026-04-25 20:30 14.55838 -17.07173 2141 ft 165 kts 360°
2026-04-25 20:30 14.56600 -17.07181 1992 ft 160 kts
2026-04-25 20:30 14.58043 -17.07195 1708 ft 153 kts
2026-04-25 20:30 14.59095 -17.07205 1501 ft 146 kts
2026-04-25 20:31 14.60085 -17.07216 1295 ft 139 kts 360°
2026-04-25 20:31 14.61039 -17.07220 1107 ft 132 kts
2026-04-25 20:31 14.61948 -17.07215 970 ft 132 kts 360°
2026-04-25 20:31 14.62877 -17.07214 805 ft 132 kts 359°
2026-04-25 20:32 14.63800 -17.07235 642 ft 131 kts 358°
2026-04-25 20:32 14.64706 -17.07248 467 ft 130 kts 358°
2026-04-25 20:32 14.65609 -17.07264 321 ft 128 kts 358°
2026-04-25 20:32 14.66447 -17.07275 307 ft 103 kts
2026-04-25 20:33 14.66987 -17.07280 313 ft 52 kts 359°
2026-04-25 20:33 14.67254 -17.07282 310 ft 32 kts 359°
2026-04-25 20:33 14.67431 -17.07285 306 ft 20 kts 359°
2026-04-25 20:33 14.67522 -17.07284 304 ft 18 kts
2026-04-25 20:34 14.67641 -17.07267 300 ft 16 kts 15°
2026-04-25 20:35 14.67821 -17.07180 294 ft 0 kts 30°
2026-04-25 20:35 14.67822 -17.07179 294 ft 0 kts 31°
2026-04-25 20:36 14.67837 -17.07150 293 ft 8 kts 82°
2026-04-25 20:36 14.67793 -17.07101 293 ft 12 kts 164°
2026-04-25 20:36 14.67693 -17.07099 297 ft 15 kts 180°
2026-04-25 20:36 14.67583 -17.07096 300 ft 15 kts 173°
2026-04-25 20:37 14.67533 -17.07019 299 ft 10 kts 102°
2026-04-25 20:37 14.67493 -17.06981 299 ft 10 kts 166°
2026-04-25 20:37 14.67403 -17.06962 300 ft 15 kts 154°
2026-04-25 20:37 14.67312 -17.06903 301 ft 14 kts 146°
2026-04-25 20:38 14.67250 -17.06862 301 ft 7 kts 147°
2026-04-25 20:38 14.67222 -17.06843 302 ft 1 kts 146°
2026-04-25 20:38 14.67220 -17.06842 302 ft 0 kts 146°